ISS 1 25544U 98067A 10040.38873190 .00019275 00000-0 12567-3 0 5505 2 25544 51.6454 166.8195 0010777 303.5541 109.5214 15.75852402643347 STS 130 1 36394U 10004A 10040.58390892 -.00206850 00000-0 -96867-3 0 60 2 36394 51.6398 165.8368 0034941 319.7913 110.9270 15.81905325 188